Location: Brachstadt
(48.6975°N, 10.6755°E)
Time: 07:16:26
(UTC+00:00)

CZ-2C R/B - Pass Details

Date: 18 September 2020
Orbit: 640 x 704 km, 98.4° (Epoch: 24 October)

Event Time Altitude Azimuth Distance (km) Brightness Sun altitude
Rises 19:58:32 0° 12° (NNE) 2,962 7.3 -24.9°
Reaches altitude 10° 20:00:45 10° 11° (N) 2,051 6.5 -25.2°
Maximum altitude 20:05:12 72° 287° (WNW) 685 3.8 -25.8°
Enters shadow 20:05:31 69° 252° (WSW) 699 3.8 -25.8°
